DateTime,F1_A11,F1_S11,BsB_S11,BsG_S11,BsR_S11,BbsB_S11,BbsG_S11,BbsR_S11,BaB_A11,BaG_A11,BaR_A11,T_S11,U_S11,P_S11,T1_A11
2016-12-03T00:00:00Z,0000380,21000600,,,,,,,,,,26.1,00.0,0634.3,34.7
2016-12-03T00:01:00Z,0000380,21000600,,,,,,,,,,26.1,00.0,0634.4,34.7
2016-12-03T00:02:00Z,0000380,21000600,,,,,,,,,,26.1,00.0,0634.4,34.7
2016-12-03T00:03:00Z,0000380,61000600,,,,,,,,,,26.1,00.0,0634.4,34.6
2016-12-03T00:04:00Z,0000380,41000600,-000.18,-000.23,-000.32,0000.58,-000.17,-000.07,-000.03,0000.04,0000.02,26.1,00.0,0635.5,34.6
2016-12-03T00:05:00Z,0000380,01000600,0000.31,0000.06,-000.31,-000.48,-000.28,-000.33,0000.04,0000.07,0000.25,26.1,00.0,0635.7,34.6
2016-12-03T00:06:00Z,0000380,01000600,0000.42,0000.65,-000.11,0000.38,0000.30,-000.00,-000.10,-000.12,-000.07,26.1,00.0,0635.7,34.6
2016-12-03T00:07:00Z,0000380,01000600,0000.65,0000.10,-000.22,0000.20,-000.27,-000.50,0000.01,0000.11,0000.21,26.1,00.0,0635.7,34.6
2016-12-03T00:08:00Z,0000380,01000600,0000.58,0000.16,0000.10,-000.44,0000.17,-000.11,0000.15,0000.00,-000.17,26.1,00.0,0635.7,34.6
2016-12-03T00:09:00Z,0000380,01000600,0000.33,-000.11,0000.33,0000.46,-000.19,0000.12,-000.02,-000.07,0000.27,26.1,00.0,0635.8,34.6
2016-12-03T00:10:00Z,0000380,01000600,0000.30,-000.20,-000.28,0000.54,-000.54,-000.43,-000.06,0000.10,-000.06,26.1,00.0,0635.8,34.6
2016-12-03T00:11:00Z,0000380,01000600,0000.61,-000.23,0000.16,-000.18,-000.41,-000.15,-000.02,0000.04,0000.17,26.1,00.0,0635.9,34.6
2016-12-03T00:12:00Z,0000380,01000600,0000.01,0000.49,0000.22,-000.60,0000.13,-000.12,0000.27,-000.08,-000.27,26.1,00.0,0635.9,34.6
2016-12-03T00:13:00Z,0000380,01000600,0000.87,0000.37,-000.13,-000.08,0000.11,-000.17,-000.06,0000.01,0000.29,26.0,00.0,0635.9,34.6
2016-12-03T00:14:00Z,0000380,01000600,0000.56,-000.01,-000.24,0000.39,-000.02,-000.06,-000.03,0000.09,0000.04,26.0,00.0,0635.9,34.6
2016-12-03T00:15:00Z,0000380,01000600,0000.43,0000.16,0000.00,-000.23,0000.39,0000.22,-000.14,-000.08,0000.01,26.0,00.0,0635.9,34.6
2016-12-03T00:16:00Z,0000380,01000600,-000.02,0000.08,-000.13,0000.74,0000.22,-000.12,0000.02,0000.06,0000.05,26.0,00.0,0635.8,34.6
2016-12-03T00:17:00Z,0000380,01000600,0000.97,0000.02,-000.09,0000.48,-000.10,-000.01,0000.18,-000.07,-000.05,26.0,00.0,0635.8,34.6
2016-12-03T00:18:00Z,0000380,01000600,-000.11,0000.33,-000.09,0000.29,-000.13,-000.10,-000.12,0000.19,0000.26,26.0,00.0,0635.9,34.6
2016-12-03T00:19:00Z,0000380,01000600,0000.43,-000.08,0000.01,0000.18,0000.13,-000.20,0000.28,-000.01,-000.32,26.0,00.0,0635.9,34.6
2016-12-03T00:20:00Z,0000380,01000600,0000.01,-000.08,-000.18,0000.02,-000.10,-000.18,-000.02,-000.08,-000.01,26.0,00.0,0635.9,34.6
2016-12-03T00:21:00Z,0000380,01000600,0000.40,0000.09,-000.11,0000.30,-000.18,-000.15,-000.03,0000.04,0000.30,26.0,00.0,0635.9,34.6
2016-12-03T00:22:00Z,0000380,01000600,0000.70,-000.70,0000.03,-000.29,0000.20,0000.00,-000.09,0000.37,-000.12,26.0,00.0,0635.8,34.6
2016-12-03T00:23:00Z,0000380,01000600,0000.69,-000.09,-000.12,-000.71,-000.04,0000.26,0000.43,-000.11,0000.24,26.0,00.0,0635.8,34.6
2016-12-03T00:24:00Z,0000380,01000600,0000.33,-000.03,-000.31,0000.40,-000.48,-000.18,-000.07,0000.01,-000.22,26.0,00.0,0635.8,34.6
2016-12-03T00:25:00Z,0000380,01000600,0000.14,0000.15,0000.36,0000.46,-000.12,0000.32,0000.16,0000.15,0000.08,25.9,00.0,0635.9,34.6
2016-12-03T00:26:00Z,0000380,01000600,0000.13,0000.20,0000.31,-000.25,0000.34,-000.24,0000.16,0000.29,-000.06,26.0,00.0,0635.9,34.6
2016-12-03T00:27:00Z,0000380,01000600,0000.94,0000.49,0000.51,0000.57,-000.14,0000.24,0000.12,-000.05,0000.37,26.0,00.0,0636.0,34.6
2016-12-03T00:28:00Z,0000380,01000600,0000.14,0000.40,0000.34,0000.46,-000.08,0000.18,0000.03,0000.14,-000.08,26.0,00.0,0636.0,34.6
2016-12-03T00:29:00Z,0000380,01000600,0000.73,0000.13,0000.20,-000.12,-000.24,-000.20,0000.12,-000.01,0000.12,26.0,00.0,0636.0,34.6
2016-12-03T00:30:00Z,0000380,01000600,0001.32,0000.18,-000.12,0000.20,0000.12,-000.12,0000.14,0000.02,0000.17,25.9,00.0,0636.1,34.6
2016-12-03T00:31:00Z,0000380,01000600,0000.60,0000.38,-000.15,-000.67,0000.23,0000.14,0000.06,0000.09,-000.02,25.9,00.0,0636.1,34.6
2016-12-03T00:32:00Z,0000380,01000600,0000.74,0000.04,-000.20,0000.13,0000.11,-000.07,0000.07,0000.21,-000.00,25.9,00.0,0636.1,34.6
2016-12-03T00:33:00Z,0000380,01000600,0001.24,0000.22,-000.11,0000.06,0000.38,-000.32,0000.12,0000.03,-000.12,25.9,00.0,0636.1,34.6
2016-12-03T00:34:00Z,0000380,01000600,0000.80,0000.07,0000.92,-000.28,-000.16,0000.21,-000.00,0000.09,0000.29,25.9,00.0,0636.1,34.6
2016-12-03T00:35:00Z,0000380,01000600,0000.24,0000.70,0000.27,0000.35,-000.11,0000.40,-000.05,0000.07,0000.09,25.9,00.0,0636.1,34.6
2016-12-03T00:36:00Z,0000380,01000600,-000.01,0000.22,0000.00,0000.26,0000.19,-000.24,0000.31,0000.06,-000.10,25.9,00.0,0636.1,34.6
2016-12-03T00:37:00Z,0000380,01000600,-000.09,0000.86,-000.02,0000.15,0000.03,0000.13,-000.21,0000.02,0000.19,25.9,00.0,0636.1,34.6
2016-12-03T00:38:00Z,0000380,01000600,0000.36,0000.21,0000.88,-000.35,-000.22,-000.29,0000.19,0000.24,0000.06,25.9,00.0,0636.1,34.6
2016-12-03T00:39:00Z,0000380,01000600,0000.41,-000.36,0000.25,-000.16,0000.04,0000.10,0000.09,-000.07,0000.25,25.9,00.0,0636.1,34.6
2016-12-03T00:40:00Z,0000380,01000600,0000.91,0001.02,-000.43,0000.29,0000.62,0000.07,0000.08,-000.13,-000.14,25.9,00.0,0636.1,34.6
2016-12-03T00:41:00Z,0000380,01000600,0001.41,-000.09,-000.01,-000.25,0000.02,-000.20,-000.01,0000.11,0000.27,25.9,00.0,0636.1,34.6
2016-12-03T00:42:00Z,0000380,01000600,0000.23,0000.09,0000.40,0000.35,0000.02,0000.04,0000.20,0000.24,-000.40,25.9,00.0,0636.1,34.6
2016-12-03T00:43:00Z,0000380,01000600,0000.36,0000.24,0000.01,0000.49,-000.03,-000.13,0000.02,0000.06,0000.15,25.9,00.0,0636.1,34.6
2016-12-03T00:44:00Z,0000380,01000600,0000.61,0000.39,-000.10,-000.25,-000.45,-000.05,-000.10,0000.07,0000.06,25.8,00.0,0636.1,34.6
2016-12-03T00:45:00Z,0000380,01000600,0001.52,0000.64,0000.05,0000.10,-000.14,0000.05,0000.20,0000.03,0000.21,25.9,00.0,0636.1,34.6
2016-12-03T00:46:00Z,0000380,01000600,0000.33,-000.03,0000.00,-000.18,-000.41,0000.04,0000.07,0000.18,0000.10,25.9,00.0,0636.1,34.6
2016-12-03T00:47:00Z,0000380,01000600,-000.16,0000.89,0000.43,0000.37,-000.15,0000.25,0000.04,-000.11,0000.06,25.8,00.0,0636.2,34.6
2016-12-03T00:48:00Z,0000380,01000600,0000.76,-000.10,0000.13,0000.11,-000.39,0000.17,-000.05,0000.22,-000.20,25.8,00.0,0636.2,34.6
2016-12-03T00:49:00Z,0000380,01000600,0000.22,-000.35,-000.19,0000.25,-000.12,-000.31,0000.19,-000.07,0000.23,25.9,00.0,0636.2,34.6
2016-12-03T00:50:00Z,0000380,01000600,0001.01,-000.68,-000.05,-000.18,-000.12,-000.30,0000.12,0000.14,0000.06,25.8,00.0,0636.1,34.6
2016-12-03T00:51:00Z,0000380,01000600,0000.48,0000.26,0000.02,-000.01,-000.11,-000.09,0000.09,0000.08,0000.18,25.8,00.0,0636.1,34.6
2016-12-03T00:52:00Z,0000380,01000600,0000.12,-000.09,0000.16,0000.13,0000.16,0000.01,-000.03,0000.02,0000.05,25.8,00.0,0636.1,34.6
2016-12-03T00:53:00Z,0000380,01000600,0000.36,0000.08,0000.08,-000.03,-000.50,-000.26,0000.13,-000.04,-000.01,25.8,00.0,0636.2,34.6
2016-12-03T00:54:00Z,0000380,01000600,0000.41,-000.29,0000.02,-000.19,-000.23,0000.12,-000.08,0000.10,-000.13,25.8,00.0,0636.2,34.6
2016-12-03T00:55:00Z,0000380,01000600,0001.11,0000.21,0000.18,0000.56,-000.18,0000.01,0000.18,0000.17,0000.14,25.8,00.0,0636.2,34.6
2016-12-03T00:56:00Z,0000380,01000600,0000.18,0000.13,0000.12,0000.54,-000.22,0000.13,-000.11,-000.13,-000.06,25.8,00.0,0636.3,34.6
2016-12-03T00:57:00Z,0000380,41000600,,,,,,,,,,25.8,00.0,0636.2,34.6
2016-12-03T00:58:00Z,0000380,61000600,,,,,,,,,,25.8,00.0,0635.3,34.6
2016-12-03T00:59:00Z,0000380,21000600,,,,,,,,,,25.8,00.0,0635.2,34.6
2016-12-03T01:00:00Z,0000380,21000600,,,,,,,,,,25.8,00.0,0635.2,34.6
2016-12-03T01:01:00Z,0000380,21000600,,,,,,,,,,25.8,00.0,0635.2,34.6
2016-12-03T01:02:00Z,0000380,21000600,,,,,,,,,,25.8,00.0,0635.2,34.6
2016-12-03T01:03:00Z,0000380,61000600,,,,,,,,,,25.8,00.0,0635.2,34.6
2016-12-03T01:04:00Z,0000380,41000600,-000.11,0001.27,-000.34,0000.39,0000.27,0000.02,0000.05,-000.07,-000.00,25.8,00.0,0636.1,34.6
2016-12-03T01:05:00Z,0000380,01000600,0001.39,0000.99,0000.19,-000.01,0000.26,0000.03,0000.17,-000.16,-000.33,25.8,00.0,0636.2,34.6
2016-12-03T01:06:00Z,0000380,01000600,-000.21,0000.79,0000.02,-000.11,0000.05,0000.28,0000.02,-000.06,0000.18,25.8,00.0,0636.2,34.6
2016-12-03T01:07:00Z,0000380,01000600,0000.46,0001.28,0000.26,-000.17,0000.33,0000.26,-000.10,0000.23,-000.10,25.8,00.0,0636.2,34.6
2016-12-03T01:08:00Z,0000380,01000600,0001.64,0000.42,0000.12,0000.75,0000.12,-000.14,0000.15,0000.10,0000.07,25.9,00.0,0636.2,34.7
2016-12-03T01:09:00Z,0000380,01000600,0000.66,0000.11,0000.30,0000.04,0000.09,0000.19,0000.06,0000.08,0000.18,25.9,00.0,0636.2,34.7
2016-12-03T01:10:00Z,0000380,01000600,0001.22,0000.82,0000.68,-000.25,0000.27,0000.07,-000.10,-000.02,-000.13,25.9,00.0,0636.2,34.7
2016-12-03T01:11:00Z,0000380,01000600,0000.25,-000.16,0000.30,0000.63,0000.42,0000.05,0000.39,0000.32,0000.36,25.9,00.0,0636.2,34.7
2016-12-03T01:12:00Z,0000380,01000600,0001.14,-000.15,0000.02,-000.60,-000.18,0000.31,-000.10,-000.00,0000.08,25.9,00.0,0636.2,34.7
2016-12-03T01:13:00Z,0000380,01000600,0000.39,0000.16,0000.10,-000.02,0000.05,-000.14,0000.08,0000.00,-000.15,25.9,00.0,0636.1,34.7
2016-12-03T01:14:00Z,0000380,01000600,0000.23,0000.13,0000.71,0000.82,-000.08,0000.57,0000.13,0000.26,0000.14,25.9,00.0,0636.1,34.6
2016-12-03T01:15:00Z,0000380,01000600,0000.50,-000.20,-000.30,0000.70,0000.01,-000.06,0000.11,-000.10,-000.17,25.9,00.0,0636.1,34.6
2016-12-03T01:16:00Z,0000380,01000600,0000.00,-000.21,0000.14,0000.18,0000.25,-000.08,0000.14,0000.25,0000.13,25.9,00.0,0636.1,34.6
2016-12-03T01:17:00Z,0000380,01000600,-000.11,0000.26,0000.85,-000.82,0000.32,0000.25,-000.13,-000.21,0000.05,25.9,00.0,0636.1,34.6
2016-12-03T01:18:00Z,0000380,01000600,-000.18,0000.72,0000.16,0000.55,-000.28,-000.15,0000.13,0000.20,-000.25,25.9,00.0,0636.1,34.6
2016-12-03T01:19:00Z,0000380,01000600,0000.71,0000.32,0000.04,-000.12,0000.21,0000.33,-000.06,-000.19,0000.02,25.9,00.0,0636.1,34.6
2016-12-03T01:20:00Z,0000380,01000600,0000.13,0000.31,0000.03,0000.37,0000.28,0000.56,0000.27,0000.13,0000.48,25.9,00.0,0636.1,34.6
2016-12-03T01:21:00Z,0000380,01000600,0000.88,0000.47,0000.44,0000.23,0000.03,0000.27,-000.28,-000.03,-000.19,25.9,00.0,0636.1,34.7
2016-12-03T01:22:00Z,0000380,01000600,0000.14,0000.09,0000.51,-000.02,0000.05,0000.20,0000.17,0000.04,0000.10,25.9,00.0,0636.1,34.7
2016-12-03T01:23:00Z,0000380,01000600,0000.84,0000.05,0000.30,0000.33,-000.06,0000.31,-000.01,0000.03,0000.26,25.9,00.0,0636.1,34.7
2016-12-03T01:24:00Z,0000380,01000600,0000.16,0000.61,0000.38,0001.07,0000.01,-000.00,0000.30,0000.27,0000.17,25.9,00.0,0636.2,34.7
2016-12-03T01:25:00Z,0000380,01000600,0001.16,0000.20,0000.12,-000.08,0000.18,-000.40,0000.11,0000.03,-000.10,25.9,00.0,0636.2,34.7
2016-12-03T01:26:00Z,0000380,01000600,-000.29,0000.40,-000.16,0000.35,-000.06,0000.16,0000.07,-000.09,-000.11,25.9,00.0,0636.2,34.7
2016-12-03T01:27:00Z,0000380,01000600,0001.16,0000.53,0000.16,-000.32,0000.43,-000.23,-000.19,0000.10,0000.00,25.9,00.0,0636.1,34.6
2016-12-03T01:28:00Z,0000380,01000600,-000.53,0000.18,0000.35,-000.50,0000.29,-000.20,0000.37,0000.00,0000.27,25.9,00.0,0636.1,34.6
2016-12-03T01:29:00Z,0000380,01000600,0000.52,0000.04,0000.43,-000.30,-000.10,-000.00,-000.11,0000.10,-000.11,25.9,00.0,0636.1,34.6
2016-12-03T01:30:00Z,0000380,01000600,-001.03,-000.15,0000.39,0000.33,0000.25,-000.14,-000.04,0000.01,-000.06,25.9,00.0,0636.1,34.6
2016-12-03T01:31:00Z,0000380,01000600,0000.54,0000.13,0000.01,0000.17,-000.27,0000.19,0000.21,0000.28,-000.13,25.9,00.0,0636.1,34.6
2016-12-03T01:32:00Z,0000380,01000600,0000.50,0000.48,-000.16,0000.46,0000.13,-000.08,-000.08,-000.01,0000.45,25.9,00.0,0636.1,34.6
2016-12-03T01:33:00Z,0000380,01000600,0000.44,0000.16,0000.38,-000.02,-000.03,0000.47,0000.05,0000.09,-000.41,25.9,00.0,0636.1,34.6
2016-12-03T01:34:00Z,0000380,01000600,0000.53,0000.03,0000.09,0000.11,0000.52,-000.29,0000.08,-000.12,0000.13,25.8,00.0,0636.1,34.6
2016-12-03T01:35:00Z,0000380,01000600,-000.40,0000.25,-000.06,-000.12,-000.08,-000.01,0000.13,-000.02,0000.07,25.9,00.0,0636.1,34.6
2016-12-03T01:36:00Z,0000380,01000600,0000.84,0000.28,0000.11,0000.59,0000.17,0000.06,-000.07,-000.00,-000.23,25.9,00.0,0636.0,34.6
2016-12-03T01:37:00Z,0000380,01000600,0000.22,-000.20,-000.07,-000.20,0000.16,-000.20,-000.01,0000.20,0000.12,25.8,00.0,0636.1,34.6
2016-12-03T01:38:00Z,0000380,01000600,0000.29,0000.71,0000.42,-000.21,-000.17,0000.25,0000.09,0000.01,0000.15,25.8,00.0,0636.1,34.6
2016-12-03T01:39:00Z,0000380,01000600,0000.83,0000.13,-000.23,0000.02,0000.07,-000.21,-000.07,-000.06,-000.09,25.8,00.0,0636.1,34.6
2016-12-03T01:40:00Z,0000380,01000600,-000.01,-000.13,-000.11,0000.22,0000.02,-000.10,0000.12,0000.02,0000.02,25.8,00.0,0636.1,34.6
2016-12-03T01:41:00Z,0000380,01000600,-000.16,0000.21,0000.21,0000.31,0000.31,0000.35,0000.17,0000.01,0000.10,25.8,00.0,0636.0,34.6
2016-12-03T01:42:00Z,0000380,01000600,0000.02,0000.18,-000.18,0000.03,0000.34,0000.40,-000.18,0000.06,-000.06,25.8,00.0,0636.0,34.6
2016-12-03T01:43:00Z,0000380,01000600,-000.58,0000.31,0000.36,-000.14,0000.15,0000.20,0000.12,0000.06,0000.44,25.8,00.0,0635.9,34.6
2016-12-03T01:44:00Z,0000380,01000600,0000.43,-000.21,-000.17,0000.89,-000.09,0000.04,-000.09,-000.26,-000.30,25.8,00.0,0635.9,34.6
2016-12-03T01:45:00Z,0000380,01000600,-000.19,0000.15,0000.23,0000.26,0000.20,0000.27,0000.04,0000.13,-000.26,25.8,00.0,0635.8,34.6
2016-12-03T01:46:00Z,0000380,01000600,0000.37,-000.59,0000.32,0000.13,0000.24,0000.17,0000.06,0000.10,0000.42,25.8,00.0,0635.8,34.6
2016-12-03T01:47:00Z,0000380,01000600,-000.10,0000.24,-000.31,-000.24,0000.31,0000.18,-000.05,-000.08,-000.25,25.8,00.0,0635.7,34.6
2016-12-03T01:48:00Z,0000380,01000600,-001.62,0000.00,0000.98,0000.62,-000.08,0000.47,-000.07,0000.02,0000.10,25.8,00.0,0635.6,34.6
2016-12-03T01:49:00Z,0000380,01000600,-000.49,0000.18,-000.15,0000.01,0000.15,-000.41,0000.19,0000.02,-000.22,25.8,00.0,0635.5,34.6
2016-12-03T01:50:00Z,0000380,01000600,0000.44,-000.06,-000.28,-000.03,0000.04,0000.16,-000.11,0000.01,0000.05,25.8,00.0,0635.4,34.6
2016-12-03T01:51:00Z,0000380,01000600,0000.24,-000.09,0000.05,0000.30,0000.00,0000.16,0000.18,0000.22,0000.05,25.7,00.0,0635.3,34.6
2016-12-03T01:52:00Z,0000380,01000600,-000.68,0000.23,-000.03,-000.11,0000.11,-000.10,0000.04,-000.22,0000.19,25.7,00.0,0635.3,34.6
2016-12-03T01:53:00Z,0000380,01000600,0000.70,0000.24,0000.07,-000.00,0000.37,0000.16,0000.22,0000.25,-000.03,25.7,00.0,0635.2,34.6
2016-12-03T01:54:00Z,0000380,01000600,-000.42,-000.80,0000.05,0000.46,0000.17,0000.01,-000.28,-000.12,-000.17,25.7,00.0,0635.2,34.6
2016-12-03T01:55:00Z,0000380,01000600,0000.51,-000.46,0000.22,-000.35,0000.18,0000.18,0000.24,0000.08,0000.04,25.7,00.0,0635.2,34.6
2016-12-03T01:56:00Z,0000380,01000600,-000.29,0000.52,-000.13,0000.34,-000.24,-000.13,0000.03,-000.02,-000.10,25.7,00.0,0635.2,34.6
2016-12-03T01:57:00Z,0000380,41000600,,,,,,,,,,25.8,00.0,0635.2,34.6
2016-12-03T01:58:00Z,0000380,61000600,,,,,,,,,,25.7,00.0,0634.2,34.6
2016-12-03T01:59:00Z,0000380,21000600,,,,,,,,,,25.7,00.0,0634.2,34.6
2016-12-03T02:00:00Z,0000380,21000600,,,,,,,,,,25.7,00.0,0634.2,34.6
2016-12-03T02:01:00Z,0000380,21000600,,,,,,,,,,25.7,00.0,0634.2,34.6
2016-12-03T02:02:00Z,0000380,21000600,,,,,,,,,,25.7,00.0,0634.2,34.6
2016-12-03T02:03:00Z,0000380,61000600,,,,,,,,,,25.7,00.0,0634.2,34.6
2016-12-03T02:04:00Z,0000380,41000600,0000.00,-000.05,0000.18,0000.62,-000.11,0000.01,0000.13,-000.11,0000.11,25.7,00.0,0635.3,34.6
2016-12-03T02:05:00Z,0000380,01000600,-000.62,0000.10,0000.29,0000.85,-000.50,-000.14,-000.16,-000.09,-000.16,25.7,00.0,0635.6,34.6
2016-12-03T02:06:00Z,0000380,01000600,-001.00,0000.11,-000.32,0000.06,0000.00,0000.20,-000.26,0000.12,-000.10,25.7,00.0,0635.8,34.6
2016-12-03T02:07:00Z,0000380,01000600,-000.07,0000.12,0000.09,-000.04,-000.06,-000.03,-000.27,-000.08,0000.08,25.6,00.0,0635.9,34.6
2016-12-03T02:08:00Z,0000380,01000600,0001.23,0000.50,0000.20,0000.50,0000.14,-000.11,0000.17,0000.14,0000.28,25.6,00.0,0636.0,34.6
2016-12-03T02:09:00Z,0000380,01000600,0000.26,0000.90,0000.35,-000.00,0000.04,0000.37,-000.08,-000.11,-000.05,25.6,00.0,0636.1,34.6
2016-12-03T02:10:00Z,0000380,01000600,-000.35,-000.33,0000.53,0000.03,0000.04,-000.22,-000.18,-000.06,-000.11,25.6,00.0,0636.2,34.6
2016-12-03T02:11:00Z,0000380,01000600,-000.32,0000.56,0000.59,-000.27,-000.33,0000.05,0000.26,0000.12,0000.12,25.6,00.0,0636.2,34.6
2016-12-03T02:12:00Z,0000380,01000600,0000.58,-000.13,0000.34,0000.77,-000.10,-000.06,0000.07,-000.16,0000.16,25.6,00.0,0636.2,34.6
2016-12-03T02:13:00Z,0000380,01000600,-000.57,-000.41,0000.30,-000.34,-000.16,0000.27,-000.13,0000.02,-000.14,25.6,00.0,0636.2,34.6
2016-12-03T02:14:00Z,0000380,01000600,0000.27,0000.04,-000.09,0000.06,-000.40,0000.18,0000.06,0000.10,0000.20,25.6,00.0,0636.2,34.6
2016-12-03T02:15:00Z,0000380,01000600,0000.29,0000.43,-000.08,-000.37,-000.08,-000.18,-000.00,-000.09,-000.10,25.6,00.0,0636.1,34.6
2016-12-03T02:16:00Z,0000380,01000600,0000.12,0000.35,-000.09,0000.55,-000.19,-000.05,0000.08,0000.02,0000.13,25.6,00.0,0636.0,34.6
2016-12-03T02:17:00Z,0000380,01000600,0000.25,0000.02,0000.52,-000.12,-000.02,0000.15,-000.00,0000.18,0000.05,25.6,00.0,0636.0,34.6
2016-12-03T02:18:00Z,0000380,01000600,-000.70,0000.54,0000.28,0000.55,-000.01,-000.11,-000.02,-000.28,-000.47,25.5,00.0,0636.0,34.6
2016-12-03T02:19:00Z,0000380,01000600,0000.05,0000.23,-000.32,0000.03,-000.04,0000.02,0000.11,0000.16,0000.48,25.5,00.0,0635.9,34.6
2016-12-03T02:20:00Z,0000380,01000600,-000.89,-000.09,0000.72,-000.21,0000.06,-000.22,0000.02,0000.14,-000.08,25.5,00.0,0635.9,34.6
2016-12-03T02:21:00Z,0000380,01000600,-000.54,0000.36,-000.21,0000.17,-000.43,0000.03,0000.11,-000.02,-000.22,25.5,00.0,0636.0,34.6
2016-12-03T02:22:00Z,0000380,01000600,-000.65,-000.34,0000.05,-000.26,-000.50,0000.20,-000.24,-000.06,0000.29,25.5,00.0,0635.9,34.6
2016-12-03T02:23:00Z,0000380,01000600,-000.23,-000.07,0000.76,0000.06,0000.02,0000.28,0000.22,-000.07,-000.16,25.5,00.0,0636.0,34.6
2016-12-03T02:24:00Z,0000380,01000600,0000.31,-000.01,0000.76,0000.90,-000.10,0000.12,-000.14,0000.08,-000.23,25.5,00.0,0636.0,34.6
2016-12-03T02:25:00Z,0000380,01000600,-000.00,-000.08,0000.23,0000.53,-000.02,-000.18,0000.16,-000.01,0000.11,25.5,00.0,0636.0,34.6
2016-12-03T02:26:00Z,0000380,01000600,0000.52,0000.18,0000.02,0000.05,0000.07,-000.19,0000.03,0000.09,0000.15,25.5,00.0,0636.1,34.6
2016-12-03T02:27:00Z,0000380,01000600,-000.75,0000.89,0000.35,-000.14,0000.22,0000.23,-000.14,-000.16,-000.28,25.5,00.0,0636.1,34.6
2016-12-03T02:28:00Z,0000380,01000600,0001.07,0000.36,0000.59,-000.00,0000.00,-000.14,-000.05,0000.17,0000.36,25.5,00.0,0636.2,34.6
2016-12-03T02:29:00Z,0000380,01000600,0000.56,0000.66,0000.59,0001.11,-000.01,0000.12,-000.04,0000.08,-000.05,25.5,00.0,0636.2,34.6
2016-12-03T02:30:00Z,0000380,01000600,0000.52,-000.38,0000.29,0000.68,0000.03,-000.24,0000.15,0000.05,0000.22,25.5,00.0,0636.3,34.6
2016-12-03T02:31:00Z,0000380,01000600,-000.03,0000.16,-000.10,0000.83,-000.26,-000.30,0000.17,-000.12,-000.30,25.5,00.0,0636.3,34.6
2016-12-03T02:32:00Z,0000380,01000600,-000.23,0000.22,0000.25,-000.32,0000.02,0000.14,0000.01,0000.17,0000.28,25.4,00.0,0636.2,34.6
2016-12-03T02:33:00Z,0000380,01000600,0000.58,0000.21,0000.41,-000.07,0000.19,0000.14,-000.01,-000.04,0000.09,25.5,00.0,0636.2,34.6
2016-12-03T02:34:00Z,0000380,01000600,-000.31,-000.56,0000.29,-000.07,0000.14,-000.00,0000.02,0000.09,-000.45,25.4,00.0,0636.2,34.6
2016-12-03T02:35:00Z,0000380,01000600,-000.04,-000.01,0000.38,0000.11,-000.23,-000.09,0000.19,-000.27,0000.28,25.5,00.0,0636.1,34.6
2016-12-03T02:36:00Z,0000380,01000600,0000.02,0000.14,0000.01,0000.16,-000.23,-000.16,-000.11,0000.27,-000.04,25.5,00.0,0636.1,34.6
2016-12-03T02:37:00Z,0000380,01000600,-000.34,0000.52,0000.28,-000.01,-000.11,0000.24,-000.05,-000.30,-000.09,25.5,00.0,0636.0,34.6
2016-12-03T02:38:00Z,0000380,01000600,-000.43,-000.86,0000.24,0000.52,-000.11,0000.42,0000.03,0000.16,0000.13,25.5,00.0,0636.0,34.6
2016-12-03T02:39:00Z,0000380,01000600,-000.50,0000.62,0001.00,0000.88,-000.08,0000.01,0000.25,0000.24,0000.11,25.5,00.0,0636.0,34.7
2016-12-03T02:40:00Z,0000380,01000600,0000.73,-000.34,-000.34,-000.22,-000.07,-000.56,-000.12,-000.12,-000.13,25.5,00.0,0636.0,34.7
2016-12-03T02:41:00Z,0000380,01000600,0000.24,-000.06,0000.15,0000.50,-000.02,-000.08,0000.13,-000.20,0000.05,25.5,00.0,0636.0,34.7
2016-12-03T02:42:00Z,0000380,01000600,0001.12,-001.27,0000.08,0000.00,-000.08,-000.39,-000.09,0000.20,0000.09,25.5,00.0,0636.0,34.6
2016-12-03T02:43:00Z,0000380,01000600,-001.05,-000.25,0000.33,-000.14,0000.48,0000.11,-000.12,-000.13,-000.26,25.6,00.0,0636.0,34.6
2016-12-03T02:44:00Z,0000380,01000600,-000.08,-000.13,0000.54,0000.62,0000.00,0000.01,0000.18,0000.24,0000.29,25.5,00.0,0636.0,34.6
2016-12-03T02:45:00Z,0000380,01000600,0000.32,-000.52,0000.06,-000.75,0000.00,-000.16,0000.14,0000.06,-000.07,25.5,00.0,0636.0,34.6
2016-12-03T02:46:00Z,0000380,01000600,-000.06,-000.39,0000.36,-000.25,-000.40,0000.18,-000.24,-000.13,0000.13,25.5,00.0,0636.0,34.6
2016-12-03T02:47:00Z,0000380,01000600,0000.10,-000.57,0000.03,0000.21,-000.28,-000.23,0000.08,0000.20,-000.16,25.5,00.0,0636.0,34.6
2016-12-03T02:48:00Z,0000380,01000600,0001.22,0000.22,0000.49,0000.15,-000.09,0000.01,0000.12,-000.04,0000.09,25.5,00.0,0636.0,34.6
2016-12-03T02:49:00Z,0000380,01000600,0000.20,-000.22,-000.10,0000.92,-000.32,0000.04,0000.04,-000.12,-000.35,25.5,00.0,0636.1,34.6
2016-12-03T02:50:00Z,0000380,01000600,0000.21,0000.04,0000.07,-000.49,-000.30,-000.42,-000.24,-000.08,0000.30,25.5,00.0,0636.1,34.6
2016-12-03T02:51:00Z,0000380,01000600,0000.34,-000.45,0000.36,0000.27,0000.34,-000.11,0000.24,0000.09,-000.02,25.5,00.0,0636.1,34.6
2016-12-03T02:52:00Z,0000380,01000600,0000.72,-000.65,0000.27,0000.86,-000.04,0000.07,-000.05,0000.08,0000.09,25.5,00.0,0636.1,34.6
2016-12-03T02:53:00Z,0000380,01000600,0000.35,-000.36,0000.36,-000.05,-000.12,0000.05,-000.01,-000.07,0000.01,25.5,00.0,0636.1,34.6
2016-12-03T02:54:00Z,0000380,01000600,-001.24,-000.90,0000.35,0000.55,-000.59,0000.12,0000.05,0000.09,0000.04,25.5,00.0,0636.1,34.6
2016-12-03T02:55:00Z,0000380,01000600,0000.10,0000.48,0000.31,0000.37,0000.11,0000.09,0000.00,-000.01,-000.15,25.5,00.0,0636.1,34.6
2016-12-03T02:56:00Z,0000380,01000600,0000.44,-000.27,-000.40,0000.38,0000.05,-000.01,-000.01,-000.01,-000.04,25.6,00.0,0636.1,34.6
2016-12-03T02:57:00Z,0000380,41000600,,,,,,,,,,25.6,00.0,0636.1,34.6
2016-12-03T02:58:00Z,0000380,61000600,,,,,,,,,,25.5,00.0,0635.1,34.6
2016-12-03T02:59:00Z,0000380,21000600,,,,,,,,,,25.5,00.0,0635.1,34.6
2016-12-03T03:00:00Z,0000380,21000600,,,,,,,,,,25.5,00.0,0635.1,34.6
2016-12-03T03:01:00Z,0000380,21000600,,,,,,,,,,25.5,00.0,0635.1,34.6
2016-12-03T03:02:00Z,0000380,21000600,,,,,,,,,,25.5,00.0,0635.1,34.6
2016-12-03T03:03:00Z,0000380,61000600,,,,,,,,,,25.5,00.0,0635.1,34.6
2016-12-03T03:04:00Z,0000380,41000600,-000.09,0000.15,0000.15,-000.22,0000.49,-000.21,0000.18,0000.12,0000.35,25.5,00.0,0636.0,34.6
2016-12-03T03:05:00Z,0000380,01000600,-001.03,-000.49,-000.19,-000.36,-000.18,-000.50,-000.24,-000.06,-000.04,25.6,00.0,0636.2,34.6
2016-12-03T03:06:00Z,0000380,01000600,0000.09,0000.28,-000.15,-000.17,0000.50,0000.06,0000.04,-000.01,-000.18,25.6,00.0,0636.2,34.6
2016-12-03T03:07:00Z,0000380,01000600,-000.06,-000.82,-000.17,-000.74,0000.23,0000.01,0000.15,-000.11,-000.03,25.6,00.0,0636.2,34.7
2016-12-03T03:08:00Z,0000380,01000600,-000.37,0000.48,0000.05,-000.37,0000.21,-000.03,-000.03,0000.02,-000.13,25.6,00.0,0636.2,34.7
2016-12-03T03:09:00Z,0000380,01000600,-000.57,-000.42,0000.05,-000.37,0000.29,0000.36,0000.01,-000.10,0000.45,25.6,00.0,0636.2,34.7
2016-12-03T03:10:00Z,0000380,01000600,-000.25,-000.16,-000.13,-000.35,0000.17,0000.12,-000.07,0000.10,-000.33,25.6,00.0,0636.2,34.7
2016-12-03T03:11:00Z,0000380,01000600,0000.29,-000.07,0000.16,-000.47,0000.27,-000.22,0000.02,0000.27,0000.05,25.6,00.0,0636.1,34.7